CST,Max TemperatureF,Mean TemperatureF,Min TemperatureF,Max Dew PointF,MeanDew PointF,Min DewpointF,Max Humidity, Mean Humidity, Min Humidity, Max Sea Level PressureIn, Mean Sea Level PressureIn, Min Sea Level PressureIn, Max VisibilityMiles, Mean VisibilityMiles, Min VisibilityMiles, Max Wind SpeedMPH, Mean Wind SpeedMPH, Max Gust SpeedMPH,PrecipitationIn, CloudCover, Events, WindDirDegrees
2012-11-1,87,64,42,41,37,34,76,42,15,30.06,29.99,29.92,10,10,10,13,6,16,0.00,0,,236
2012-11-2,86,68,51,54,44,37,67,43,22,29.97,29.91,29.83,10,10,10,21,8,29,0.00,0,,182
2012-11-3,68,58,48,41,36,32,62,45,26,30.20,30.12,29.96,10,10,3,20,14,28,0.00,0,,31
2012-11-4,69,54,39,36,33,32,75,47,25,30.23,30.16,30.08,10,10,10,9,5,,0.00,0,,60
2012-11-5,71,58,46,37,33,28,66,43,22,30.18,30.13,30.11,10,10,2,24,9,28,0.00,0,,4
2012-11-6,80,60,39,36,34,30,70,46,18,30.19,30.14,30.08,10,10,10,14,3,17,0.00,0,,38
2012-11-7,77,58,39,37,34,32,81,45,21,30.22,30.13,30.02,10,10,2,15,8,20,0.00,0,,117
2012-11-8,82,66,50,52,44,36,62,47,28,30.01,29.92,29.82,10,10,10,18,13,28,0.00,0,,156
2012-11-9,86,70,55,55,52,46,82,53,25,29.92,29.85,29.76,10,10,10,24,13,30,0.00,0,,170
2012-11-10,82,70,59,57,54,52,82,55,37,29.87,29.76,29.67,10,10,10,32,18,41,0.00,0,Rain,163
2012-11-11,69,52,33,57,41,27,88,71,50,30.34,30.01,29.73,10,10,2,22,11,32,0.39,2,Rain-Thunderstorm,354
2012-11-12,51,40,30,32,28,25,93,63,35,30.53,30.46,30.35,10,10,10,9,5,,0.00,0,,221
2012-11-13,57,44,32,30,23,16,75,49,20,30.49,30.39,30.28,10,10,10,17,7,22,0.00,0,,152
2012-11-14,64,48,32,28,26,25,80,51,22,30.38,30.31,30.23,10,10,10,13,7,,0.00,0,,157
2012-11-15,64,50,35,43,34,27,81,61,42,30.35,30.25,30.19,10,10,10,16,8,20,0.00,0,,133
2012-11-16,62,50,39,36,33,32,75,54,32,30.42,30.35,30.32,10,10,10,10,8,,0.00,1,,111
2012-11-17,66,52,37,36,32,27,81,50,30,30.37,30.29,30.22,10,10,10,16,9,23,0.00,0,,141
2012-11-18,69,58,48,52,39,28,72,50,32,30.23,30.16,30.09,10,10,10,25,14,31,0.00,1,Rain,166
2012-11-19,71,61,51,52,49,45,88,67,38,30.16,30.13,30.08,10,10,10,10,7,,0.00,0,,142
2012-11-20,77,64,51,54,48,45,94,56,32,30.27,30.22,30.17,10,9,4,8,5,,0.00,0,,116
2012-11-21,77,60,42,50,45,36,93,61,22,30.26,30.17,30.05,10,9,2,21,6,25,0.00,0,,155
2012-11-22,80,66,51,50,45,30,82,51,26,30.23,30.00,29.92,10,10,7,32,10,40,0.00,0,,179
2012-11-23,59,49,39,34,25,19,54,39,22,30.57,30.45,30.24,10,10,10,30,20,44,0.00,0,,32
2012-11-24,62,47,32,27,24,21,70,45,20,30.45,30.23,30.00,10,10,10,21,6,26,0.00,0,,176
2012-11-25,64,50,35,34,30,23,70,50,32,29.99,29.88,29.83,10,10,10,12,7,,0.00,0,,109
2012-11-26,57,46,35,32,29,19,87,57,36,30.41,30.10,29.83,10,10,7,29,13,37,0.00,0,,3
2012-11-27,51,38,26,28,26,21,86,59,33,30.49,30.39,30.30,10,10,10,15,9,17,0.00,0,,124
2012-11-28,68,50,32,37,32,27,87,58,26,30.34,30.25,30.15,10,10,10,16,9,21,0.03,0,,139
2012-11-29,71,56,41,45,40,36,82,62,33,30.16,30.07,29.98,10,10,10,20,11,24,0.00,0,,139
2012-11-30,69,56,42,50,41,30,100,67,23,30.06,30.00,29.94,10,7,0,16,8,,0.00,1,Fog,128